Regional Weather Roundup
Issued by NWS

Home | Current Version | Previous Version | Graphics & Text | Print | Product List | Glossary On
Versions: 1 2 3 4 5 6 7 8 9 10 11 12 13 14 15 16 17 18 19 20 21 22 23 24 25 26 27 28 29 30 31 32 33 34 35 36 37 38 39 40 41 42 43 44 45 46 47 48 49 50
000
ASUS43 KFSD 261910
RWRSD

WEATHER ROUNDUP FOR SOUTH DAKOTA
NATIONAL WEATHER SERVICE SIOUX FALLS SD
200 PM CDT FRI AUG 26 2016

NOTE: "FAIR" INDICATES FEW OR NO CLOUDS BELOW 12,000 FEET WITH NO
SIGNIFICANT WEATHER AND/OR OBSTRUCTIONS TO VISIBILITY.


SDZ001>005-009-010-012>017-262000-
NORTHWEST AND NORTH CENTRAL SOUTH DAKOTA

CITY           SKY/WX    TMP DP  RH WIND       PRES   REMARKS
BUFFALO          N/A     54  51  90 NE13      30.04S
FAITH            N/A     66  54  65 S21G30    30.07F
MOBRIDGE       CLOUDY    63  54  72 SE15      30.09F
$$

SDZ012>016-024>037-041>051-057-063-072>074-262000-
SOUTHWEST AND SOUTH CENTRAL SOUTH DAKOTA

CITY           SKY/WX    TMP DP  RH WIND       PRES   REMARKS
RAPID CTY ARPT CLOUDY    61  53  75 S13       30.10F
PIERRE         LGT RAIN  59  55  87 SE8       30.10F
CUSTER         PTSUNNY   57  49  74 VRB3      30.14F
ELLSWORTH AFB  PTSUNNY   61  54  77 S9        30.09
PHILIP         CLOUDY    60  57  89 SE6       30.11S
PINE RIDGE     CLOUDY    60  58  92 S9        30.10F
WINNER         MOCLDY    68  54  60 N14       30.13F
$$

SDZ004>011-016>023-039-040-262000-
NORTHEAST SOUTH DAKOTA

CITY           SKY/WX    TMP DP  RH WIND       PRES   REMARKS
ABERDEEN       CLOUDY    68  50  52 SW9       30.14F
WATERTOWN      CLOUDY    70  51  51 S6        30.16S
BROOKINGS      CLOUDY    70  54  56 S7        30.15S
SISSETON         N/A     72  51  47 S5        30.12F
$$

SDZ017-020-022-023-036>040-048>070-262000-
SOUTHEAST SOUTH DAKOTA

CITY           SKY/WX    TMP DP  RH WIND       PRES   REMARKS
SIOUX FALLS    CLOUDY    74  57  55 SE8       30.14S
HURON          CLOUDY    68  51  54 CALM      30.15F
CHAMBERLAIN    CLOUDY    69  57  66 N9        30.14F
MITCHELL       CLOUDY    73  50  44 NW3       30.14F
YANKTON        CLOUDY    72  55  56 SE3       30.11F
$$

ABBREVIATIONS USED IN REMARKS
   TC - TEMPERATURE IN CELSIUS
  WCI - WIND CHILL INDEX
   HX - HEAT INDEX
  VSB - VISIBILITY





USA.gov is the U.S. government's official web portal to all federal, state and local government web resources and services.